Location: Omaha
(41.2590°N, 95.9380°W)
Time: 04:28:35
(UTC-06:00)

Envisat - Pass Details

Date: 16 October 2017
Orbit: 764 x 766 km, 98.2° (Epoch: 11 December)

Event Time Altitude Azimuth Distance (km) Brightness Sun altitude
Exits shadow 21:26:30 42° 328° (NNW) 1,091 4.0 -31.7°
Drops below altitude 10° 21:29:53 10° 342° (NNW) 2,313 5.8 -32.3°
Sets 21:32:13 0° 345° (NNW) 3,244 6.6 -32.7°
